Regional Weather Roundup
Issued by NWS Northern Indiana

Home | Current Version | Previous Version | Text Only | Print | Product List | Glossary On
Versions: 1 2 3 4 5 6 7 8 9 10 11 12 13 14 15 16 17 18 19 20 21 22 23 24 25 26 27 28 29 30 31 32 33 34 35 36 37 38 39 40 41 42 43 44 45 46 47 48 49 50
000
ASUS43 KIWX 232010
RWRIWX

KIWX WEATHER ROUNDUP
NATIONAL WEATHER SERVICE NORTHERN INDIANA
400 PM EDT TUE SEP 23 2014

NOTE: "FAIR" INDICATES FEW OR NO CLOUDS BELOW 12,000 FEET WITH NO
SIGNIFICANT WEATHER AND/OR OBSTRUCTIONS TO VISIBILITY.

* THESE STATIONS ARE NOT UNDER NWS QUALITY CONTROL. THEY ALSO MAY NOT
  REPORT WEATHER SUCH AS PRECIPITATION OR FOG.

INZ001>027-232100-
NORTHERN INDIANA

CITY           SKY/WX    TMP DP  RH WIND       PRES   REMARKS
GARY*          MOSUNNY   73  50  43 MISG      30.32F
VALPARAISO     SUNNY     71  47  42 CALM      30.32F
MICHIGAN CITY* SUNNY     68  46  45 N5        30.33F
LAPORTE*       SUNNY     70  47  42 W3        30.33F
KNOX*          SUNNY     71  48  44 CALM      30.32F
SOUTH BEND     SUNNY     73  48  41 VRB3      30.33F
ELKHART*       SUNNY     72  48  43 CALM      30.33F
GOSHEN         SUNNY     71  49  45 CALM      30.32F
MONTICELLO*    SUNNY     72  50  46 N3        30.30F
LOGANSPORT*    SUNNY     70  46  43 NE7       30.32F
ROCHESTER*     SUNNY     73  46  38 CALM      30.33S
WARSAW*        SUNNY     70  50  49 CALM      30.33S
ANGOLA*        SUNNY     72  48  43 CALM      30.32F
FORT WAYNE     SUNNY     69  49  48 NE3       30.33F
HUNTINGTON*    SUNNY     69  50  51 CALM      30.32F
PERU/GRISSOM   SUNNY     71  51  49 NE5       30.31F
MARION*        SUNNY     69  46  43 SE3       30.32F

$$
INZ028>050-232100-
CENTRAL INDIANA

CITY           SKY/WX    TMP DP  RH WIND       PRES   REMARKS
LAFAYETTE      SUNNY     71  49  45 NE7       30.30F
KOKOMO*        SUNNY     72  48  43 E3        30.31F
MUNCIE*        SUNNY     70  44  39 VRB3      30.32F
INDIANAPOLIS   SUNNY     70  45  40 NE3       30.30F

$$
MIZ043>046-050>051-056>058-064>065-071>073-077>080-232100-
SOUTHWEST LOWER MICHIGAN

CITY           SKY/WX    TMP DP  RH WIND       PRES   REMARKS
BATTLE CREEK   SUNNY     72  50  45 W6        30.32F
BENTON HARBOR  SUNNY     66  48  52 W9        30.33F
COLDWATER*     SUNNY     72  49  44 W6        30.32F
HILLSDALE*     SUNNY     71  48  44 W5        30.33S
HOLLAND        SUNNY     69  53  56 W12       30.34S
GRAND RAPIDS   MOSUNNY   72  55  55 VRB7      30.31F
KALAMAZOO      SUNNY     72  50  45 W5        30.32F
STURGIS*         N/A     70  48  46 W3        30.32F
THREE RIVERS*  FAIR      72  51  47 CALM      30.32F

$$
OHZ001>008-015>018-024>025-232100-
NORTHWEST OHIO

CITY           SKY/WX    TMP DP  RH WIND       PRES   REMARKS
WAUSEON*       FAIR      72  48  43 W6        30.32F
DEFIANCE       SUNNY    N/A N/A N/A CALM      30.33F
FINDLAY        SUNNY     73  45  36 CALM      30.32F
TOLEDO EXPRESS SUNNY     70  45  40 VRB3      30.33F
TOLEDO METCALF SUNNY     70  45  40 CALM      30.33F
LIMA           SUNNY     70  45  40 CALM      30.33F

$$
AND FOR LAKE MICHIGAN COASTAL AND OPEN LAKE BUOY OBSERVATIONS

STATION/POSITION TEMP    WIND        PRES    VSBY  WAVE
                 AIR SEA DIR/SP/G                  HT/PER
                 (F)     (DEG/KT/KT) (MB)    (MI)  (FT/S)
CALUMET HARBOR    67      70/  8/ 10 1025.1F
SAINT JOSEPH      68      CALM  /  4 1027.1F
SOUTH LAKE BUOY   62 61  190/  8/ 10 1026.9F         1/ 3
4 MI NW BRIDGMAN  63 65  310/  6/  8   N/A           1/ 3
MICHIGAN CITY     64 65  360/  6/  6   N/A           1

$$
&&


USA.gov is the U.S. government's official web portal to all federal, state and local government web resources and services.